Location: Kershaw
(34.5481°N, 80.5823°W)
Time: 21:07:16
(UTC+00:00)

Vanguard 2 Rocket - Pass Details

Date: 09 October 2022
Orbit: 555 x 3321 km, 32.9° (Epoch: 28 November)

Event Time Altitude Azimuth Distance (km) Brightness Sun altitude
Rises 02:03:08 0° 242° (WSW) 7,298 12.0 -38.6°
Reaches altitude 10° 02:08:09 10° 241° (WSW) 6,256 11.5 -39.5°
Enters shadow 02:26:41 69° 181° (S) 2,868 9.0 -43.0°
